Nassau, Bahamas

4:23 AM EST on November 19, 2017 (GMT -0500)
Nassau International

Weather History for MYNN - March, 2014

Change the Weather History Date:

Sunday, March 9, 2014

  Actual Average Record
Temperature  
Mean Temperature 72 °F -  
Max Temperature 79 °F 81 °F 86 °F (2003)
Min Temperature 65 °F 65 °F 55 °F (2001)
Cooling Degree Days 7    
Growing Degree Days 22 (Base 50)    
Moisture  
Dew Point 60 °F    
Average Humidity 66    
Maximum Humidity 78    
Minimum Humidity 55    
Precipitation  
Precipitation 0.00 in 0.06 in - ()
Sea Level Pressure  
Sea Level Pressure 30.12 in    
Wind  
Wind Speed 2 mph ()    
Max Wind Speed 9 mph    
Max Gust Speed -    
Visibility 6.7 miles    
Events      
Averages and records for this station are not official NWS values.
T = Trace of Precipitation, MM = Missing Value Source: Averaged Metar Reports

Daily Weather History Graph

Daily Weather History Graph

Search for Another Location

Airport or City:

Trip Planner

Search our weather history database for the weather conditions in past years. The results will help you decide how hot, cold, wet, or windy it might be!

Date:

Astronomy

Mar. 09, 2014 Rise Set
Actual Time 7:25 AM EDT 7:16 PM EDT
Civil Twilight 7:02 AM EDT 7:38 PM EDT
Nautical Twilight 6:35 AM EDT 8:05 PM EDT
Astronomical Twilight 6:09 AM EDT 8:31 PM EDT
Moon 1:32 PM EDT (3/9) 3:23 AM EDT (3/9)
Length of Visible Light 12h 36m
Length of Day
11h 51m
First Quarter, 61% of the Moon is Illuminated
Mar 9
First Quarter
Mar 16
Full
Mar 23
Last Quarter
Mar 30
New
Apr 7
First Quarter

Hourly Weather History & Observations

Time (EDT) Temp. Dew Point Humidity Pressure Visibility Wind Dir Wind Speed Gust Speed Precip Events Conditions
12:00 AM 69.8 °F 55.4 °F 60% 30.12 in 6.2 mi Calm Calm - N/A   Scattered Clouds
1:00 AM 69 °F 59 °F 62% 30.13 in 8 mi Calm Calm - -   Partly Cloudy
1:00 AM 68.0 °F 59.0 °F 73% 30.12 in 6.2 mi Calm Calm - N/A   Scattered Clouds
3:00 AM 69.8 °F 53.6 °F 56% 30.11 in 6.2 mi Calm Calm - N/A   Scattered Clouds
4:00 AM 68.0 °F 55.4 °F 64% 30.10 in 6.2 mi Calm Calm - N/A   Mostly Cloudy
5:00 AM 67 °F 58 °F 66% 30.10 in 8 mi Calm Calm - -   Mostly Cloudy
5:00 AM 66.2 °F 59.0 °F 78% 30.09 in 6.2 mi Calm Calm - N/A   Mostly Cloudy
6:00 AM 66.2 °F 55.4 °F 68% 30.11 in 6.2 mi Calm Calm - N/A   Scattered Clouds
7:00 AM 66.2 °F 57.2 °F 73% 30.12 in 6.2 mi Calm Calm - N/A   Scattered Clouds
8:00 AM 68 °F 61 °F 73% 30.13 in 8 mi NNE 2.3 mph - -   Partly Cloudy
8:00 AM 68.0 °F 60.8 °F 78% 30.13 in 6.2 mi Variable 2.3 mph - N/A   Scattered Clouds
9:00 AM 73.4 °F 59.0 °F 61% 30.15 in 6.2 mi NE 6.9 mph - N/A   Scattered Clouds
10:00 AM 73.4 °F 59.0 °F 61% 30.17 in 6.2 mi ENE 3.5 mph - N/A   Scattered Clouds
11:00 AM 75 °F 62 °F 55% 30.17 in 8 mi ENE 8.1 mph - -   Partly Cloudy
11:00 AM 75.2 °F 68.0 °F 78% 30.17 in 6.2 mi ENE 8.1 mph - N/A   Scattered Clouds
12:00 PM - - N/A% 30.18 in 6.2 mi NNE 8.1 mph - N/A   Scattered Clouds
1:00 PM 75.2 °F 59.0 °F 57% 30.16 in 6.2 mi NNE 5.8 mph - N/A   Mostly Cloudy
2:00 PM 75 °F 64 °F 60% 30.15 in 8 mi North 8.1 mph - -   Partly Cloudy
2:00 PM 75.2 °F 64.4 °F 69% 30.15 in 6.2 mi North 8.1 mph - N/A   Mostly Cloudy
3:00 PM 75.2 °F 59.0 °F 57% 30.11 in 6.2 mi NNE 8.1 mph - N/A   Mostly Cloudy
4:00 PM 75.2 °F 60.8 °F 61% 30.09 in 6.2 mi North 9.2 mph - N/A   Mostly Cloudy
5:00 PM 77 °F - 283% 30.09 in 8 mi NNE 5.8 mph - -   Partly Cloudy
5:00 PM 77.0 °F 64.4 °F 65% 30.09 in 6.2 mi NNE 5.8 mph - N/A   Mostly Cloudy
6:00 PM 75.2 °F 60.8 °F 61% 30.09 in 6.2 mi NNE 8.1 mph - N/A   Mostly Cloudy
7:00 PM 73.4 °F 59.0 °F 61% 30.09 in 6.2 mi NNE 4.6 mph - N/A   Mostly Cloudy
8:00 PM 72 °F 62 °F 64% 30.10 in 8 mi Calm Calm - -   Scattered Clouds
8:00 PM 71.6 °F 62.6 °F 73% 30.10 in 6.2 mi Calm Calm - N/A   Scattered Clouds
9:00 PM 71.6 °F 59.0 °F 64% 30.10 in 6.2 mi Calm Calm - N/A   Scattered Clouds
10:00 PM 71.6 °F 59.0 °F 64% 30.12 in 6.2 mi Calm Calm - N/A   Scattered Clouds
11:00 PM 72 °F 63 °F 65% 30.15 in 8 mi NNE 4.6 mph - -   Partly Cloudy
11:00 PM 71.6 °F 62.6 °F 73% 30.15 in 6.2 mi NNE 4.6 mph - N/A   Scattered Clouds